Terminal Aerodrome Forecast
Issued by NWS Atlanta, GA

Home | Current Version | Previous Version | Text Only | Print | Product List | Glossary On
Versions: 1 2 3 4 5 6 7 8 9 10 11 12 13 14 15 16 17
000
FTUS42 KFFC 282333
TAFMCN
TAF
KMCN 282333Z 2900/2924 00000KT P6SM SKC
     FM291600 16006KT P6SM FEW200
     FM292200 20008KT P6SM SCT120
     FM292300 21007KT P6SM BKN070=

USA.gov is the U.S. government's official web portal to all federal, state and local government web resources and services.